Hourly Data Report for September 17, 2010

PETERBOROUGH AWOS
ONTARIO

44°14'00.000" N
78°22'00.000" W
191.40 m
6166420

Download Data

Hourly Data (September 2010)
Hourly Data Report for September 17, 2010
TIME
LST
Temp Definition
°C
Dew Point Definition
°C
Rel Hum Definition
%
Precip. Amount Definition
mm

Wind Dir Definition
10's deg

Wind Spd Definition
km/h
Visibility Definition
km
Stn Press Definition
kPa
Hmdx Definition


Wind Chill Definition


Weather Definition


00:00 10.0 8.2 89   LegendMM LegendMM 15.0 99.01      
01:00 9.7 8.0 89   LegendMM LegendMM 15.0 99.10      
02:00 9.5 7.6 88   LegendMM LegendMM 15.0 99.14      
03:00 8.5 6.4 87   LegendMM LegendMM 15.0 99.23      
04:00 7.6 6.2 91   LegendMM LegendMM 15.0 99.33      
05:00 5.5 5.1 97   LegendMM LegendMM 15.0 99.39      
06:00 6.6 6.0 96   LegendMM LegendMM 15.0 99.47      
07:00 8.4 6.9 90   LegendMM LegendMM 15.0 99.53      
08:00 10.0 6.6 79   LegendMM LegendMM 15.0 99.56      
09:00 11.4 6.3 71   LegendMM LegendMM 15.0 99.64      
10:00 13.0 6.2 63   LegendMM LegendMM 15.0 99.72      
11:00 13.9 7.7 66   LegendMM LegendMM 15.0 99.70      
12:00 14.8 7.6 62   LegendMM LegendMM 15.0 99.69      
13:00 16.3 7.0 54   LegendMM LegendMM 15.0 99.69      
14:00 16.2 8.0 58   LegendMM LegendMM 15.0 99.67      
15:00 16.5 7.6 56   LegendMM LegendMM 15.0 99.65      
16:00 17.3 6.5 49   LegendMM LegendMM 15.0 99.64      
17:00 14.4 10.5 77   LegendMM LegendMM 15.0 99.67      
18:00 13.0 10.1 83   LegendMM LegendMM 15.0 99.73      
19:00 10.8 9.1 89   LegendMM LegendMM 15.0 99.76      
20:00 8.7 8.5 99   LegendMM LegendMM 15.0 99.78      
21:00 7.2 7.2 100   LegendMM LegendMM 15.0 99.83      
22:00 6.0 6.0 100   LegendMM LegendMM 0.5 99.84      
23:00 5.5 5.5 100   LegendMM LegendMM 0.2 99.86      

Notes on Data Quality.

Legend

  • E = Estimated
  • M = Missing
  • NA = Not Available*
  • [empty] = Indicates an unobserved value
Date modified: